EW0611 Weather Reports


time (UTC)temp
F
wind
direction
speed
knots
gust
knots
rain 1hr
in
rain 24hr
in
rain mn
in
humidity
%
barometer
mb
20260502194517 59 0.0 0.9 0.00 0.02 0.02 74 1012.4
20260502193536 60 0.0 1.7 0.00 0.02 0.02 74 1012.7
20260502192516 59 0.0 0.9 0.00 0.02 0.02 75 1012.7
20260502191517 59 0.0 0.0 0.00 0.02 0.02 79 1012.8
20260502190516 59 0.0 0.9 0.00 0.02 0.02 80 1012.8
20260502185536 59 0.0 1.7 0.00 0.02 0.02 79 1012.9
20260502184516 59 180 0.9 3.5 0.00 0.02 0.02 79 1012.9
20260502183516 59 0.0 0.9 0.00 0.02 0.02 82 1013.0
20260502182516 58 0.0 0.9 0.00 0.02 0.02 84 1013.3
20260502181516 57 0.0 1.7 0.00 0.02 0.02 86 1013.3
20260502180516 57 0.0 1.7 0.00 0.02 0.02 85 1013.3
20260502170516 56 225 0.9 2.6 0.01 0.02 0.02 87 1013.7
20260502163516 55 0.0 0.9 0.01 0.02 0.02 90 1014.6
20260502162536 55 0.0 0.9 0.01 0.02 0.02 90 1014.8
20260502161516 55 0.0 0.9 0.01 0.02 0.02 90 1014.9
20260502160516 55 0.0 0.9 0.00 0.01 0.01 91 1014.8
20260502151536 55 0.0 0.0 0.00 0.01 0.01 91 1014.5
20260502150516 55 0.0 0.9 0.01 0.01 0.01 91 1014.6
20260502130516 53 0.0 0.9 0.00 0.00 0.00 92 1013.6
20260502123515 52 0.0 0.0 0.00 0.00 0.00 92 1013.7
20260502122515 52 0.0 0.0 0.00 0.00 0.00 92 1013.3
20260502121537 52 0.0 0.0 0.00 0.00 0.00 92 1013.3
20260502120515 52 0.0 0.0 0.00 0.00 0.00 92 1013.3
20260502115515 52 0.0 0.0 0.00 0.00 0.00 92 1013.4
20260502114515 52 0.0 0.9 0.00 0.00 0.00 92 1013.6
20260502113515 52 0.0 0.9 0.00 0.00 0.00 92 1013.4
20260502112556 52 0.0 0.9 0.00 0.00 0.00 92 1013.5
20260502111515 52 0.0 0.0 0.00 0.00 0.00 92 1013.5
20260502110516 52 0.0 0.0 0.00 0.00 0.00 92 1013.6
20260502105515 52 0.0 0.0 0.00 0.00 0.00 92 1013.7
20260502104515 52 0.0 0.0 0.00 0.00 0.00 92 1013.7
20260502103515 52 0.0 0.0 0.00 0.00 0.00 92 1013.7
20260502102515 52 0.0 0.0 0.00 0.00 0.00 92 1013.8
20260502101556 52 0.0 0.9 0.00 0.00 0.00 91 1013.8
20260502100515 52 0.0 0.0 0.00 0.00 0.00 91 1013.8
20260502091515 51 0.0 0.0 0.00 0.00 0.00 91 1013.5
20260502090515 51 0.0 0.0 0.00 0.00 0.00 91 1013.4
20260502071516 51 0.0 0.0 0.00 0.00 0.00 91 1013.0
20260502070515 51 0.0 0.0 0.00 0.00 0.00 91 1013.0
20260502065515 51 0.0 0.0 0.00 0.00 0.00 92 1013.0
20260502064515 51 0.0 0.0 0.00 0.00 0.00 92 1013.2
20260502063515 51 0.0 0.0 0.00 0.00 0.00 92 1013.1
20260502062515 51 0.0 0.0 0.00 0.00 0.00 92 1013.1
20260502061515 51 0.0 0.0 0.00 0.00 0.00 92 1013.2
20260502060515 51 0.0 0.0 0.00 0.00 0.00 92 1013.1
20260502055515 51 0.0 0.0 0.00 0.00 0.00 92 1013.4
20260502054516 51 0.0 0.0 0.00 0.00 0.00 92 1013.3
20260502053515 51 0.0 0.0 0.00 0.00 0.00 92 1013.3
20260502052515 51 0.0 0.0 0.00 0.00 0.00 91 1013.3
20260502051517 51 0.0 0.0 0.00 0.00 0.00 91 1013.6
20260502050517 51 0.0 0.0 0.00 0.00 0.00 91 1013.7
20260502045517 51 0.0 0.0 0.00 0.00 0.00 91 1013.7
20260502044537 51 0.0 0.0 0.00 0.00 0.00 91 1013.7
20260502043518 51 0.0 0.0 0.00 0.00 0.00 91 1013.7
20260502042517 52 0.0 0.0 0.00 0.00 0.00 91 1013.7
20260502041517 52 0.0 0.0 0.00 0.00 0.00 91 1013.8
20260502040517 52 0.0 0.0 0.00 0.00 0.00 91 1013.8
20260502035535 52 0.0 0.0 0.00 0.00 0.00 90 1013.9
20260502034515 52 0.0 0.0 0.00 0.00 0.00 90 1014.0
20260502033555 53 0.0 0.0 0.00 0.00 0.00 90 1014.0
20260502032515 53 0.0 0.0 0.00 0.00 0.00 90 1013.9
20260502031515 53 0.0 0.0 0.00 0.00 0.00 90 1013.9
20260502030515 53 0.0 0.9 0.00 0.00 0.00 90 1013.9
20260502025515 53 0.0 0.0 0.00 0.00 0.00 90 1014.0
20260502024515 53 0.0 0.9 0.00 0.00 0.00 90 1014.0
20260502023515 53 0.0 0.9 0.00 0.00 0.00 90 1014.0
20260502022517 53 0.0 0.9 0.00 0.00 0.00 90 1014.1
20260502021537 53 0.0 0.0 0.00 0.00 0.00 89 1014.1
20260502020517 53 0.0 0.0 0.00 0.00 0.00 89 1014.0
20260502015517 53 0.0 0.0 0.00 0.00 0.00 90 1014.0
20260502014537 53 0.0 0.0 0.00 0.00 0.00 90 1013.9
20260502013518 52 0.0 0.0 0.00 0.00 0.00 89 1014.0
20260502012517 53 0.0 0.9 0.00 0.00 0.00 89 1013.9
20260502011517 53 0.0 0.0 0.00 0.00 0.00 89 1014.0
20260502010517 53 0.0 0.0 0.00 0.00 0.00 89 1013.6
20260502005517 53 0.0 0.9 0.00 0.00 0.00 88 1013.8
20260502004517 53 0.0 0.0 0.00 0.00 0.00 87 1013.7
20260502003517 54 0.0 0.0 0.00 0.00 0.00 86 1013.5
20260502002517 54 0.0 0.0 0.00 0.00 0.00 85 1013.4
20260502001517 55 0.0 0.0 0.00 0.00 0.00 84 1013.3
20260502000517 55 0.0 0.0 0.00 0.00 0.00 82 1013.2
20260501235537 56 0.0 0.0 0.00 0.00 0.00 81 1013.3
20260501234516 56 0.0 0.0 0.00 0.00 0.00 79 1013.3
20260501233517 56 0.0 0.9 0.00 0.00 0.00 78 1013.3
20260501232517 57 0.0 0.9 0.00 0.00 0.00 77 1013.2
20260501231516 57 0.0 0.9 0.00 0.00 0.00 76 1013.1
20260501230517 58 0.0 0.9 0.00 0.00 0.00 77 1013.0
20260501225517 58 0.0 1.7 0.00 0.00 0.00 75 1013.0
20260501224517 58 0.0 2.6 0.00 0.00 0.00 75 1013.3
20260501223517 58 0.0 2.6 0.00 0.00 0.00 73 1013.3
20260501222517 59 0.0 0.9 0.00 0.00 0.00 73 1013.5
20260501221516 59 0.0 0.9 0.00 0.00 0.00 72 1013.6
20260501220516 59 0.0 0.9 0.00 0.00 0.00 71 1013.6
20260501215517 59 0.0 2.6 0.00 0.00 0.00 70 1013.8
20260501214517 59 23 0.9 1.7 0.00 0.00 0.00 70 1013.8
20260501213516 59 315 0.9 2.6 0.00 0.00 0.00 71 1013.8
20260501212537 60 0.0 1.7 0.00 0.00 0.00 71 1013.8
20260501211517 60 0.0 0.9 0.00 0.00 0.00 68 1013.8
20260501210536 61 225 0.9 2.6 0.00 0.00 0.00 65 1013.7
20260501205517 62 293 0.9 3.5 0.00 0.00 0.00 60 1013.8
20260501204516 64 158 0.9 3.5 0.00 0.00 0.00 59 1013.8
20260501203557 65 293 0.9 2.6 0.00 0.00 0.00 57 1013.6
20260501202536 66 270 0.9 3.5 0.00 0.00 0.00 56 1013.6
20260501201557 67 270 0.9 1.7 0.00 0.00 0.00 54 1013.6
20260501200516 67 0.0 0.9 0.00 0.00 0.00 53 1013.8
20260501195537 68 0.0 0.9 0.00 0.00 0.00 51 1014.1